Home   Weather   Espoo   Past weeks

Flag for Finland Past Weather in Espoo, Finland — Yesterday and Last 2 Weeks

Now
37 °F

Clear.


Feels Like: 28 °F
Forecast: 27 / 32 °F
Wind: 16 mph from West

Location: Helsinki-Vantaa

Current Time: Jan 19, 2017 at 9:20:34 pm

Latest Report: Jan 19, 2017 at 8:20 pm


Visibility: 10 mi

Pressure: 29.86 "Hg

Humidity: 75%

Dew Point: 30 °F

Location of EspooLocation

Past Weather in Espoo — Graph

°F

Espoo Temperature Yesterday

Maximum temperature yesterday: 36 °F (at 7:50 pm)
Minimum temperature yesterday: 32 °F (at 12:20 am)
Average temperature yesterday: 33 °F

High & Low Weather Summary for the Past Weeks

 TemperatureHumidityPressure
High37 °F (Jan 10, 7:50 am)100% (Jan 8, 5:50 am)30.66 "Hg (Jan 8, 5:50 am)
Low-15 °F (Jan 6, 8:20 am)64% (Jan 11, 10:50 pm)29.03 "Hg (Jan 13, 3:20 am)
Average25 °F89%29.92 "Hg
* Reported Jan 4 7:20 pm — Jan 19 7:50 pm, Espoo, Weather by CustomWeather, © 2017

Note: Actual official high and low records may vary slightly from our data, if they occured in-between our weather recording intervals... More about our weather records

Advertising

Espoo Weather History for the Previous 24 Hours

Scroll right to see more
 ConditionsComfort  
Time TempWeatherWind HumidityBarometerVisibility
7:50 pm
Thu, Jan 19
36 °FClear.13 mph87%29.86 "Hg10 mi
7:20 pm36 °FClear.13 mph87%29.86 "Hg10 mi
6:50 pm36 °FClear.13 mph87%29.86 "Hg10 mi
6:20 pm36 °FClear.13 mph87%29.86 "Hg10 mi
5:50 pm36 °FClear.14 mph87%29.86 "Hg10 mi
5:20 pm36 °FClear.13 mph87%29.86 "Hg10 mi
4:50 pm36 °FClear.13 mph87%29.86 "Hg10 mi
4:20 pm36 °FClear.13 mph87%29.86 "Hg10 mi
3:50 pm36 °FSunny.12 mph87%29.89 "Hg10 mi
3:20 pm36 °FSunny.9 mph87%29.89 "Hg10 mi
2:50 pm36 °FSunny.9 mph87%29.92 "Hg10 mi
2:20 pm34 °FScattered clouds.10 mph93%29.95 "HgN/A
1:50 pm34 °FPartly sunny.9 mph93%29.95 "HgN/A
1:20 pm34 °FPartly sunny.10 mph93%29.98 "HgN/A
12:50 pm34 °FBroken clouds.12 mph93%29.98 "HgN/A
12:20 pm34 °FBroken clouds.9 mph93%29.98 "HgN/A
11:50 am34 °FPartly sunny.9 mph93%30.01 "HgN/A
11:20 am36 °FPartly sunny.10 mph93%30.01 "HgN/A
10:50 am34 °FPartly sunny.12 mph93%30.01 "HgN/A
10:20 am34 °FPartly sunny.12 mph93%30.01 "HgN/A
9:50 am34 °FPartly sunny.10 mph93%30.01 "HgN/A
9:20 am34 °FPartly sunny.9 mph93%30.01 "HgN/A
8:50 am34 °FPassing clouds.8 mph100%30.01 "HgN/A
8:20 am34 °FPassing clouds.9 mph100%30.04 "HgN/A
7:50 am34 °FPassing clouds.10 mph93%30.01 "HgN/A
7:20 am34 °FPassing clouds.9 mph93%30.04 "HgN/A
6:50 am34 °FPassing clouds.10 mph93%30.01 "HgN/A
6:20 am34 °FDrizzle. Low clouds.10 mph93%30.01 "HgN/A
5:50 am34 °FPartly cloudy.12 mph93%30.01 "HgN/A
5:20 am34 °FPartly cloudy.13 mph93%30.01 "HgN/A
4:50 am34 °FDrizzle. Low clouds.12 mph100%30.04 "HgN/A
4:20 am34 °FPassing clouds.13 mph100%30.04 "HgN/A
3:50 am34 °FDrizzle. Low clouds.10 mph93%30.04 "HgN/A
3:20 am34 °FDrizzle. Low clouds.10 mph93%30.04 "HgN/A
2:50 am34 °FDrizzle. Mostly cloudy.15 mph100%30.04 "HgN/A
2:20 am34 °FPassing clouds.13 mph100%30.04 "HgN/A
1:50 am34 °FPassing clouds.13 mph100%30.04 "HgN/A
1:20 am36 °FPassing clouds.16 mph93%30.04 "HgN/A
12:50 am36 °FPassing clouds.15 mph93%30.04 "Hg6 mi
12:20 am36 °FPassing clouds.14 mph93%30.07 "Hg6 mi
11:50 pm
Wed, Jan 18
36 °FPassing clouds.15 mph93%30.07 "Hg4 mi
11:20 pm36 °FPassing clouds.16 mph93%30.09 "Hg4 mi
10:50 pm36 °FPassing clouds.16 mph93%30.07 "HgN/A
10:20 pm36 °FPassing clouds.16 mph93%30.09 "HgN/A
9:50 pm36 °FPassing clouds.17 mph93%30.09 "Hg6 mi
9:20 pm36 °FPassing clouds.16 mph93%30.12 "Hg3 mi
Weather by CustomWeather, © 2017

See weather overviewHow to use our weather pages